{"data":{"norad_id":59159,"epoch":"2026-09-20T21:27:16.651872Z","epoch_age_seconds":124769,"freshness":"FRESH","line1":"1 59159U 24044H   26263.89394273  .00000305  00000+0  20602-4 0  9998","line2":"2 59159  43.0028  84.2661 0000374 264.6137  95.4671 15.27576213143456","mean_motion":15.27576213,"eccentricity":3.74e-5,"inclination_deg":43.0028,"raan_deg":84.2661,"arg_perigee_deg":264.6137,"mean_anomaly_deg":95.4671,"bstar":2.0602e-5,"rev_number":14345,"period_min":94.266982409473,"perigee_km":482.80382691935,"apogee_km":483.31704448754,"semimajor_km":6861.1974357034,"source":"CELESTRAK","updated_at":"2026-09-21T09:00:34.057195Z"}}